VANGUARD R/B, 12

Orbit data source: Space-Track

VANGUARD R/B, 12 is space debris in LEO originally from a launch on Tue, 17 Feb 1959 UTC launched from the Air Force Eastern Test Range (AFETR). Debris objects in space refer to the collection of defunct objects orbiting the Earth. Examples of debris include non-operational satellites, rocket bodies, and fragments generated from explosions, collisions, or faulty payload assembly.

Loading next visibility...
Identifier
12, 1959-001B
Orbit
LEO
Country
Flag of USUS
Related business
Manufacturer
GCR/Redlands
Mission
Spacecraft
Bus & Motor
33-KS-2800, Unknown motor
Mass
22 kg wet, 22 kg dry
Launch date (UTC)
1959-02-17 (67 years ago)
Launch vehicle
Unknown
Launch site
Air Force Eastern Test Range (AFETR)
Object type
Payload
Rocket body
Debris
Shape & HBR
Unknown
Radar Cross Section
Medium (>0.1 m² and <1 m²)

Expand to show TLE details & history
Last TLE update: 1 day ago

TLE from 1 day ago
0 VANGUARD R/B
1 00012U 59001B   26015.38256632  .00000600  00000-0  35110-3 0  9996
2 00012  32.9009  43.7691 1647262  15.9193 348.7410 11.48478335513756
Epoch: 2026-01-15T09:10Z
TLE epoch observation values (Epoch: 2026-01-15T09:10:53.730Z)
Latitude
0.00001°
Longitude
151.20825°
Altitude
589.76 km
Speed
8.149 km/s
True Right ascension
02h 55m 04s
True Declination
0° 00' 00"
Sunlit
Object was in daylight at epoch
Visualization orbit readout
Latitude
Unknown
Longitude
Unknown
Altitude
Unknown
Speed
Unknown
Apparent Right ascension
Unknown
Apparent Declination
Unknown
Sunlit
N/A
Visualization observer readout
Local Sidereal Time
09:26:16
Azimuth
Unknown
Elevation
Unknown
Doppler factor
Unknown
Orbital elements
Apogee altitude
3,290.653 km
Perigee altitude
555.756 km
Semi-major axis
8,301.341 km
Eccentricity
0.16473
Inclination
32.9009°
RAAN
43.7691°
Arg. of periapsis
15.9193°
True anomaly
344.14008°
Mean anomaly
348.741°
Eccentric anomaly
346.54491°
Mean motion
2.8696 °/min
Orbital period
125.45 mins
BSTAR
0.0003511
Loading maneuver chart data...
Computing Atmospheric mass density...
Loading historical data...
Loading historical data...
Loading historical data...
Loading historical data...
Loading historical data...
Loading historical data...
Loading historical data...
Other satellites on launch #1 in the year 1959 (1959-02-17 UTC)

Documentation

Showing up to 5 results
|